Terminal Aerodrome Forecast
Issued by NWS Detroit/Pontiac, MI

Home | Current Version | Previous Version | Text Only | Print | Product List | Glossary On
Versions: 1 2 3 4 5 6 7 8 9 10 11 12 13 14 15 16 17 18 19 20 21 22 23 24 25 26 27 28 29 30 31 32 33
047
FTUS43 KDTX 232320
TAFDTW
TAF
KDTW 232320Z 2400/2506 14006KT P6SM OVC090
     FM240500 16008KT P6SM -RA OVC045 WS020/22040KT
     FM240800 20010KT P6SM SCT035 BKN060 WS020/23045KT
     FM241400 23014G25KT P6SM BKN020
     FM250000 24010KT P6SM OVC020=

USA.gov is the U.S. government's official web portal to all federal, state and local government web resources and services.